Location: B�hl
(48.6968°N, 8.1352°E)
Time: 21:32:05
(UTC+00:00)

Cosmos 1980 - Pass Details

Date: 08 March 2021
Orbit: 839 x 848 km, 71.0° (Epoch: 14 April)

Event Time Altitude Azimuth Distance (km) Brightness Sun altitude
Rises 19:54:10 0° 211° (SSW) 3,379 6.9 -25.3°
Reaches altitude 10° 19:56:36 10° 212° (SSW) 2,449 6.2 -25.7°
Maximum altitude 20:02:14 77° 299° (WNW) 865 3.7 -26.5°
Drops below altitude 10° 20:07:54 10° 26° (NNE) 2,468 6.1 -27.4°
Sets 20:10:22 0° 28° (NNE) 3,407 6.9 -27.7°
